Starlink 1828

operational
NORAD ID: 46725 Int'l Des: 2020-073 Owner: SPXS Country: US Constellation: starlink
LEOCIRCULAR

关于 Starlink 1828

正在加载描述...

实时位置

正在加载3D地球...

即将过境

高度历史

Altitude vs Time

uPlot chart will show altitude changes over time

两行轨道根数

1 46725U 20073BH 26061.00406843 .00055822 00000-0 99720-3 0 9998
2 46725 53.0531 273.4077 0008426 147.0022 213.1513 15.49482359296013
Epoch: Mar 2, 2026 • Age: 46 hours

当前状态

高度 418.7 km
速度 7.66 km/s
星下点 -17.80°S, 31.36°W
发射日期 Oct 18, 2020
运行时间 5.3 years
类型 internet

技术详情

分类 Payload
质量 260.00 kg
干质量 248.00 kg
总质量 260.00 kg
长度 0.20 m
直径 2.80 m
跨度 9.00 m
形状 Box + pan
制造商 SPXS
平台类型 Starlink
阶段状态 In Orbit
所有者/国家 SPXS/US

大型星座

Loading constellations...